Hourly Data Report for March 19, 2012

All times are specified in Local Standard Time (LST). Add 1 hour to adjust for Daylight Saving Time where and when it is observed.

HALIFAX STANFIELD INT'L A
NOVA SCOTIA

44°52'48.060" N
63°30'00.050" W
145.40 m
8202250
71395
YHZ

Download Data

Hourly Data (March 2012)
Hourly Data Report for March 19, 2012
TIME Temp Definition
°C
Dew Point Definition
°C
Rel Hum Definition
%
Wind Dir Definition
10's deg

Wind Spd Definition
km/h
Visibility Definition
km
Stn Press Definition
kPa
Hmdx Definition


Wind Chill Definition


Weather Definition


00:00 10.3 5.8 74 28 15 24.1 99.62     Mainly Clear
01:00 11.4 6.0 69 29 20 24.1 99.62     Mainly Clear
02:00 10.7 5.9 72 29 13 24.1 99.68     Mainly Clear
03:00 12.5 6.8 68 32 20 24.1 99.74     Mostly Cloudy
04:00 11.1 6.7 74 33 22 24.1 99.82     Mostly Cloudy
05:00 10.0 6.2 77 32 24 24.1 99.91     Mainly Clear
06:00 8.4 5.0 79 35 24 24.1 100.02     Mostly Cloudy
07:00 6.8 3.3 78 36 20 24.1 100.20     Mostly Cloudy
08:00 6.5 0.5 65 2 24 24.1 100.30     Mostly Cloudy
09:00 6.4 0.8 67 3 22 24.1 100.44     Mostly Cloudy
10:00 6.2 -0.3 63 2 24 24.1 100.54     Mostly Cloudy
11:00 7.3 -0.4 58 3 26 24.1 100.58     Mostly Cloudy
12:00 8.2 -1.1 52 2 19 24.1 100.67     Mostly Cloudy
13:00 9.0 -0.5 51 36 17 24.1 100.73     Mainly Clear
14:00 9.4 -1.1 48 36 19 24.1 100.76     Mainly Clear
15:00 9.7 -1.9 44 2 20 24.1 100.78     Mainly Clear
16:00 8.8 -3.1 43 2 11 24.1 100.78     Mostly Cloudy
17:00 8.1 -3.7 43 2 13 24.1 100.88     Mostly Cloudy
18:00 5.9 -5.2 45 2 15 24.1 100.91     Mostly Cloudy
19:00 2.9 -4.2 60 16 7 24.1 100.97     Mainly Clear
20:00 0.8 -3.3 74 17 7 24.1 101.01     Mainly Clear
21:00 -0.1 -3.2 80 21 11 24.1 101.06   -4 Mainly Clear
22:00 -0.8 -3.4 83 19 11 24.1 101.06   -5 Mainly Clear
23:00 -1.3 -3.3 86 18 11 24.1 101.03   -5 Mainly Clear

Notes on Data Quality.

Legend

  • E = Estimated
  • M = Missing
  • NA = Not Available
Date modified: